Flag for Belarus Weather past 2 weeks in Gomel, Belarus

Now
84 °F

Partly sunny.


Feels Like: 82 °F
Forecast: 59 / 79 °F
Wind: 10 mph from East

Location: Gomel'

Current Time: May 26, 2015 at 3:57:22 PM

Latest Report: May 26, 2015 at 3:30 PM


Visibility: N/A

Pressure: 29.77 "Hg

Humidity: 29%

Dew point: 48 °F

Location of GomelLocation

Historic Weather in Gomel — Graph

°F

Gomel temperature yesterday

Maximum temperature yesterday: 75 °F (at 4:00 PM)
Minimum temperature yesterday: 48 °F (at 5:00 AM)
Average temperature yesterday: 63 °F

Past Weeks' High & Low Weather Summary

 TemperatureHumidityPressure
High84 °F (May 26, 1:00 PM)100% (May 25, 5:00 AM)30.24 "Hg (May 25, 5:00 AM)
Low37 °F (May 17, 6:30 AM)27% (May 11, 4:00 PM)29.62 "Hg (May 15, 5:00 AM)
Average61 °F62%29.95 "Hg
* Reported May 11 2:00 PM — May 26 2:30 PM, Gomel, Weather by CustomWeather, © 2015

Note: Actual official high and low records may vary slightly from our data, if they occured in-between our weather recording intervals... More about our weather records

Advertising

Gomel weather history for previous 24 hours

 ConditionsComfort  
Time TempWeatherWind HumidityBarometerVisibility
2:30 PM
Tue, May 26
84 °FPartly sunny.15 mph29%29.80 "HgN/A
2:00 PM84 °FPartly sunny.15 mph29%29.80 "HgN/A
1:30 PM84 °FPartly sunny.15 mph33%29.80 "HgN/A
1:00 PM84 °FPartly sunny.15 mph33%29.80 "HgN/A
12:30 PM82 °FPartly sunny.10 mph35%29.80 "HgN/A
12:00 PM82 °FPartly sunny.10 mph35%29.80 "HgN/A
11:30 AM79 °FSunny.10 mph51%29.83 "Hg10 mi
11:00 AM79 °FSunny.8 mph51%29.83 "Hg10 mi
10:30 AM73 °FSunny.8 mph57%29.83 "Hg10 mi
10:00 AM73 °FSunny.6 mph57%29.83 "Hg10 mi
9:30 AM68 °FSunny.8 mph69%29.83 "Hg10 mi
9:00 AM68 °FSunny.8 mph69%29.83 "Hg10 mi
8:30 AM64 °FSunny.8 mph78%29.86 "Hg10 mi
8:00 AM64 °FSunny.8 mph78%29.86 "Hg10 mi
7:30 AM59 °FSunny.6 mph88%29.86 "Hg10 mi
7:00 AM59 °FClear.3 mph88%29.86 "Hg6 mi
6:30 AM57 °FClear.3 mph94%29.86 "Hg5 mi
6:00 AM57 °FClear.3 mph94%29.86 "Hg4 mi
5:00 AM57 °FClear.3 mph94%29.86 "Hg4 mi
4:00 AM57 °FClear.6 mph94%29.89 "Hg5 mi
3:00 AM57 °FClear.6 mph94%29.89 "Hg10 mi
2:00 AM59 °FClear.6 mph88%29.89 "Hg10 mi
1:00 AM61 °FClear.6 mph88%29.92 "Hg10 mi
12:00 AM61 °FClear.6 mph83%29.92 "Hg10 mi
11:00 PM
Mon, May 25
61 °FClear.6 mph83%29.92 "Hg10 mi
10:00 PM64 °FClear.3 mph73%29.92 "Hg10 mi
9:00 PM70 °FSunny.6 mph64%29.92 "Hg10 mi
8:00 PM73 °FSunny.6 mph53%29.92 "Hg10 mi
7:30 PM75 °FSunny.6 mph47%29.95 "Hg10 mi
7:00 PM75 °FSunny.6 mph47%29.95 "Hg10 mi
6:30 PM75 °FSunny.6 mph47%29.95 "Hg10 mi
6:00 PM75 °FSunny.6 mph47%29.95 "Hg10 mi
5:30 PM75 °FPartly sunny.6 mph44%29.95 "HgN/A
5:00 PM75 °FPartly sunny.6 mph44%29.98 "HgN/A
4:30 PM75 °FPartly sunny.6 mph47%29.98 "HgN/A
4:00 PM75 °FPartly sunny.6 mph47%29.98 "HgN/A
3:30 PM73 °FPartly sunny.3 mph47%29.98 "HgN/A
3:00 PM73 °FPartly sunny.8 mph47%29.98 "HgN/A
Weather by CustomWeather, © 2015

See weather overviewHow to use our weather pages